Time,TemperatureF,DewpointF,PressureIn,WindDirection,WindDirectionDegrees,WindSpeedMPH,WindSpeedGustMPH,Humidity,HourlyPrecipIn,Conditions,Clouds,dailyrainin,SoftwareType,DateUTC
2013-03-03 00:01:00,65.1,63.6,30.12,South,180,0.0,1.0,95,0.02,,,-99.99,WeatherLink 5.9.3,2013-03-02 13:01:00,
2013-03-03 00:06:00,65.1,63.6,30.12,South,179,0.0,1.0,95,0.00,,,0.00,Wunderground v.1.15,2013-03-02 13:06:00,
2013-03-03 00:11:00,65.0,63.5,30.12,ESE,122,1.0,1.0,95,0.00,,,0.00,Wunderground v.1.15,2013-03-02 13:11:00,
2013-03-03 00:17:00,65.1,63.6,30.12,SE,141,2.0,2.0,95,0.00,,,0.00,Wunderground v.1.15,2013-03-02 13:17:00,
2013-03-03 00:22:00,65.1,63.6,30.12,South,186,3.0,3.0,95,0.00,,,0.00,Wunderground v.1.15,2013-03-02 13:22:00,
2013-03-03 00:28:00,65.2,63.7,30.12,South,176,2.0,4.0,95,0.00,,,0.00,Wunderground v.1.15,2013-03-02 13:28:00,
2013-03-03 00:33:00,65.3,63.8,30.11,SE,145,2.0,3.0,95,0.00,,,0.00,Wunderground v.1.15,2013-03-02 13:33:00,
2013-03-03 00:39:00,65.4,63.9,30.11,SE,145,0.0,4.0,95,0.00,,,0.00,Wunderground v.1.15,2013-03-02 13:39:00,
2013-03-03 00:44:00,65.5,64.0,30.11,SE,145,1.0,2.0,95,0.00,,,0.00,Wunderground v.1.15,2013-03-02 13:44:00,
2013-03-03 00:49:00,65.5,64.0,30.11,South,178,0.0,2.0,95,0.00,,,0.00,Wunderground v.1.15,2013-03-02 13:49:00,
2013-03-03 00:55:00,65.6,64.1,30.11,SSE,165,0.0,1.0,95,0.00,,,0.00,Wunderground v.1.15,2013-03-02 13:55:00,
2013-03-03 01:00:00,65.5,64.0,30.11,South,180,1.0,4.0,95,0.00,,,-99.99,WeatherLink 5.9.3,2013-03-02 14:00:00,
2013-03-03 01:06:00,65.6,64.1,30.10,SSE,155,1.0,1.0,95,0.00,,,0.00,Wunderground v.1.15,2013-03-02 14:06:00,
2013-03-03 01:11:00,65.6,64.1,30.10,SE,141,3.0,3.0,95,0.00,,,0.00,Wunderground v.1.15,2013-03-02 14:11:00,
2013-03-03 01:17:00,65.7,64.2,30.10,SSE,166,2.0,3.0,95,0.00,,,0.00,Wunderground v.1.15,2013-03-02 14:17:00,
2013-03-03 01:22:00,65.7,64.2,30.10,SW,224,1.0,1.0,95,0.00,,,0.00,Wunderground v.1.15,2013-03-02 14:22:00,
2013-03-03 01:28:00,65.7,63.9,30.09,SE,131,0.0,2.0,94,0.00,,,0.00,Wunderground v.1.15,2013-03-02 14:28:00,
2013-03-03 01:33:00,65.7,63.9,30.09,SSE,150,0.0,1.0,94,0.00,,,0.00,Wunderground v.1.15,2013-03-02 14:33:00,
2013-03-03 01:38:00,65.7,63.9,30.09,South,185,0.0,2.0,94,0.00,,,0.00,Wunderground v.1.15,2013-03-02 14:38:00,
2013-03-03 01:44:00,65.8,64.0,30.09,SSE,152,0.0,1.0,94,0.00,,,0.00,Wunderground v.1.15,2013-03-02 14:44:00,
2013-03-03 01:49:00,65.8,64.0,30.09,South,175,1.0,2.0,94,0.58,,,0.02,Wunderground v.1.15,2013-03-02 14:49:00,
2013-03-03 01:54:00,65.8,64.0,30.09,SSE,147,2.0,2.0,94,0.23,,,0.04,Wunderground v.1.15,2013-03-02 14:54:00,
2013-03-03 02:00:00,65.8,64.0,30.09,SSE,157,1.0,3.0,94,0.03,,,-99.99,WeatherLink 5.9.3,2013-03-02 15:00:00,
2013-03-03 02:05:00,65.2,63.1,30.09,East,101,1.0,6.0,93,0.04,,,0.04,Wunderground v.1.15,2013-03-02 15:05:00,
2013-03-03 02:11:00,65.0,62.9,30.08,ENE,77,0.0,1.0,93,0.00,,,0.04,Wunderground v.1.15,2013-03-02 15:11:00,
2013-03-03 02:16:00,64.9,63.1,30.08,SE,124,1.0,5.0,94,0.00,,,0.04,Wunderground v.1.15,2013-03-02 15:16:00,
2013-03-03 02:21:00,64.8,63.0,30.08,SSE,157,1.0,2.0,94,0.00,,,0.04,Wunderground v.1.15,2013-03-02 15:21:00,
2013-03-03 02:26:00,64.7,62.9,30.08,SSE,163,1.0,2.0,94,0.00,,,0.04,Wunderground v.1.15,2013-03-02 15:26:00,
2013-03-03 02:31:00,64.7,62.9,30.08,SSE,157,0.0,1.0,94,0.04,,,-99.99,WeatherLink 5.9.3,2013-03-02 15:31:00,
2013-03-03 02:36:00,64.6,62.8,30.08,SW,226,2.0,7.0,94,0.00,,,0.04,Wunderground v.1.15,2013-03-02 15:36:00,
2013-03-03 02:41:00,64.6,62.8,30.09,South,180,1.0,7.0,94,0.04,,,-99.99,WeatherLink 5.9.3,2013-03-02 15:41:00,
2013-03-03 02:46:00,64.7,62.9,30.08,SE,136,0.0,3.0,94,0.00,,,0.04,Wunderground v.1.15,2013-03-02 15:46:00,
2013-03-03 02:51:00,64.7,62.9,30.08,South,181,1.0,1.0,94,0.00,,,0.04,Wunderground v.1.15,2013-03-02 15:51:00,
2013-03-03 02:56:00,64.7,62.9,30.08,West,275,2.0,2.0,94,0.00,,,0.04,Wunderground v.1.15,2013-03-02 15:56:00,
2013-03-03 03:01:00,64.7,62.9,30.08,SE,135,0.0,2.0,94,0.04,,,-99.99,WeatherLink 5.9.3,2013-03-02 16:01:00,
2013-03-03 03:06:00,64.9,63.4,30.08,South,179,0.0,3.0,95,0.00,,,0.05,Wunderground v.1.15,2013-03-02 16:06:00,
2013-03-03 03:11:00,65.0,63.5,30.08,SW,231,1.0,5.0,95,0.00,,,0.05,Wunderground v.1.15,2013-03-02 16:11:00,
2013-03-03 03:16:00,65.2,63.7,30.08,SSW,204,1.0,5.0,95,0.00,,,0.05,Wunderground v.1.15,2013-03-02 16:16:00,
2013-03-03 03:21:00,65.2,63.7,30.08,SSE,150,1.0,3.0,95,0.00,,,0.05,Wunderground v.1.15,2013-03-02 16:21:00,
2013-03-03 03:26:00,65.2,63.7,30.08,SSE,152,1.0,5.0,95,0.00,,,0.05,Wunderground v.1.15,2013-03-02 16:26:00,
2013-03-03 03:31:00,65.2,63.7,30.08,SSE,157,2.0,4.0,95,0.01,,,-99.99,WeatherLink 5.9.3,2013-03-02 16:31:00,
2013-03-03 03:36:00,65.2,63.7,30.08,South,188,1.0,4.0,95,0.00,,,0.05,Wunderground v.1.15,2013-03-02 16:36:00,
2013-03-03 03:41:00,65.2,63.7,30.08,SSW,202,0.0,2.0,95,0.00,,,0.05,Wunderground v.1.15,2013-03-02 16:41:00,
2013-03-03 03:46:00,65.2,63.7,30.08,SSW,207,0.0,3.0,95,0.00,,,0.05,Wunderground v.1.15,2013-03-02 16:46:00,
2013-03-03 03:51:00,65.1,63.6,30.08,South,188,1.0,2.0,95,0.00,,,0.05,Wunderground v.1.15,2013-03-02 16:51:00,
2013-03-03 03:56:00,65.1,63.6,30.08,SE,139,0.0,3.0,95,0.00,,,0.05,Wunderground v.1.15,2013-03-02 16:56:00,
2013-03-03 04:01:00,65.0,63.5,30.08,South,174,3.0,5.0,95,0.00,,,0.05,Wunderground v.1.15,2013-03-02 17:01:00,
2013-03-03 04:06:00,65.0,63.5,30.08,SSE,158,2.0,5.0,95,0.00,,,0.05,Wunderground v.1.15,2013-03-02 17:06:00,
2013-03-03 04:11:00,65.0,63.5,30.08,NE,35,1.0,2.0,95,0.00,,,0.05,Wunderground v.1.15,2013-03-02 17:11:00,
2013-03-03 04:16:00,65.1,63.3,30.08,SE,136,3.0,4.0,94,0.00,,,0.05,Wunderground v.1.15,2013-03-02 17:16:00,
2013-03-03 04:21:00,65.1,63.6,30.08,South,175,4.0,4.0,95,0.41,,,0.06,Wunderground v.1.15,2013-03-02 17:21:00,
2013-03-03 04:26:00,65.1,63.6,30.08,SSW,198,2.0,4.0,95,0.18,,,0.07,Wunderground v.1.15,2013-03-02 17:26:00,
2013-03-03 04:31:00,65.1,63.6,30.08,East,96,1.0,2.0,95,0.07,,,0.07,Wunderground v.1.15,2013-03-02 17:31:00,
2013-03-03 04:36:00,65.1,63.6,30.08,SSE,158,1.0,3.0,95,0.04,,,0.07,Wunderground v.1.15,2013-03-02 17:36:00,
2013-03-03 04:41:00,65.1,63.6,30.08,SSE,161,0.0,2.0,95,0.00,,,0.07,Wunderground v.1.15,2013-03-02 17:41:00,
2013-03-03 04:46:00,65.0,63.5,30.08,South,175,1.0,3.0,95,0.00,,,0.07,Wunderground v.1.15,2013-03-02 17:46:00,
2013-03-03 04:51:00,65.0,63.5,30.08,WSW,241,2.0,3.0,95,0.00,,,0.07,Wunderground v.1.15,2013-03-02 17:51:00,
2013-03-03 04:56:00,65.0,63.5,30.08,SSW,195,2.0,3.0,95,0.00,,,0.07,Wunderground v.1.15,2013-03-02 17:56:00,
2013-03-03 05:01:00,65.0,63.5,30.08,SSE,162,1.0,2.0,95,0.00,,,0.07,Wunderground v.1.15,2013-03-02 18:01:00,
2013-03-03 05:06:00,65.0,63.5,30.08,SSE,156,2.0,2.0,95,0.00,,,0.07,Wunderground v.1.15,2013-03-02 18:06:00,
2013-03-03 05:11:00,65.1,63.6,30.08,ESE,107,1.0,2.0,95,0.00,,,0.07,Wunderground v.1.15,2013-03-02 18:11:00,
2013-03-03 05:16:00,65.2,63.7,30.08,SSE,161,0.0,3.0,95,0.00,,,0.07,Wunderground v.1.15,2013-03-02 18:16:00,
2013-03-03 05:21:00,65.2,63.7,30.08,SSW,197,0.0,3.0,95,0.00,,,0.07,Wunderground v.1.15,2013-03-02 18:21:00,
2013-03-03 05:26:00,65.1,63.6,30.08,South,180,0.0,4.0,95,0.00,,,0.07,Wunderground v.1.15,2013-03-02 18:26:00,
2013-03-03 05:31:00,65.1,63.6,30.08,SW,217,0.0,1.0,95,0.00,,,0.07,Wunderground v.1.15,2013-03-02 18:31:00,
2013-03-03 05:36:00,65.0,63.5,30.08,South,169,0.0,1.0,95,0.00,,,0.07,Wunderground v.1.15,2013-03-02 18:36:00,
2013-03-03 05:41:00,65.1,63.6,30.08,South,184,0.0,2.0,95,0.00,,,0.07,Wunderground v.1.15,2013-03-02 18:41:00,
2013-03-03 05:46:00,65.1,63.6,30.08,South,185,0.0,2.0,95,0.00,,,0.07,Wunderground v.1.15,2013-03-02 18:46:00,
2013-03-03 05:51:00,65.1,63.6,30.08,South,185,2.0,4.0,95,0.00,,,0.07,Wunderground v.1.15,2013-03-02 18:51:00,
2013-03-03 05:56:00,65.1,63.6,30.08,SW,229,0.0,4.0,95,0.00,,,0.07,Wunderground v.1.15,2013-03-02 18:56:00,
2013-03-03 06:01:00,65.1,63.6,30.08,SSE,152,0.0,1.0,95,0.00,,,0.07,Wunderground v.1.15,2013-03-02 19:01:00,
2013-03-03 06:06:00,65.0,63.5,30.08,SSW,203,0.0,1.0,95,0.00,,,0.07,Wunderground v.1.15,2013-03-02 19:06:00,
2013-03-03 06:11:00,64.9,63.4,30.08,WSW,249,0.0,1.0,95,0.00,,,0.07,Wunderground v.1.15,2013-03-02 19:11:00,
2013-03-03 06:16:00,64.9,63.4,30.08,WSW,245,0.0,1.0,95,0.00,,,0.07,Wunderground v.1.15,2013-03-02 19:16:00,
2013-03-03 06:21:00,64.9,63.4,30.09,South,189,1.0,2.0,95,0.00,,,0.07,Wunderground v.1.15,2013-03-02 19:21:00,
2013-03-03 06:26:00,64.9,63.4,30.09,SSE,167,0.0,2.0,95,0.00,,,0.07,Wunderground v.1.15,2013-03-02 19:26:00,
2013-03-03 06:31:00,64.9,63.4,30.09,SSE,167,1.0,3.0,95,0.00,,,0.07,Wunderground v.1.15,2013-03-02 19:31:00,
2013-03-03 06:36:00,64.9,63.4,30.09,SSW,197,0.0,3.0,95,0.00,,,0.07,Wunderground v.1.15,2013-03-02 19:36:00,
2013-03-03 06:41:00,65.0,63.5,30.09,South,175,1.0,1.0,95,0.00,,,0.07,Wunderground v.1.15,2013-03-02 19:41:00,
2013-03-03 06:46:00,65.0,63.5,30.09,SSE,167,1.0,1.0,95,0.00,,,0.07,Wunderground v.1.15,2013-03-02 19:46:00,
2013-03-03 06:51:00,65.1,63.6,30.09,South,170,1.0,1.0,95,0.00,,,0.07,Wunderground v.1.15,2013-03-02 19:51:00,
2013-03-03 06:56:00,65.2,63.7,30.09,South,175,1.0,2.0,95,0.00,,,0.07,Wunderground v.1.15,2013-03-02 19:56:00,
2013-03-03 07:01:00,65.4,63.6,30.10,SSE,158,1.0,1.0,94,0.00,,,0.07,Wunderground v.1.15,2013-03-02 20:01:00,
2013-03-03 07:06:00,65.5,63.7,30.10,South,181,0.0,2.0,94,0.00,,,0.07,Wunderground v.1.15,2013-03-02 20:06:00,
2013-03-03 07:11:00,65.6,63.8,30.10,SSE,154,0.0,1.0,94,0.00,,,0.07,Wunderground v.1.15,2013-03-02 20:11:00,
2013-03-03 07:16:00,65.7,63.9,30.10,South,181,2.0,2.0,94,0.00,,,0.07,Wunderground v.1.15,2013-03-02 20:16:00,
2013-03-03 07:21:00,65.9,63.8,30.10,SSW,213,0.0,1.0,93,0.00,,,0.07,Wunderground v.1.15,2013-03-02 20:21:00,
2013-03-03 07:26:00,66.0,63.9,30.10,South,171,1.0,2.0,93,0.00,,,0.07,Wunderground v.1.15,2013-03-02 20:26:00,
2013-03-03 07:31:00,66.2,63.8,30.10,SSW,202,2.0,2.0,92,0.00,,,0.07,Wunderground v.1.15,2013-03-02 20:31:00,
2013-03-03 07:36:00,66.3,63.9,30.11,SSW,207,0.0,2.0,92,0.00,,,0.07,Wunderground v.1.15,2013-03-02 20:36:00,
2013-03-03 07:41:00,66.4,64.0,30.11,SSE,163,0.0,3.0,92,0.00,,,0.08,Wunderground v.1.15,2013-03-02 20:41:00,
2013-03-03 07:46:00,66.5,64.1,30.11,South,188,2.0,4.0,92,0.00,,,0.08,Wunderground v.1.15,2013-03-02 20:46:00,
2013-03-03 07:51:00,66.7,64.3,30.11,SE,128,0.0,1.0,92,0.00,,,0.08,Wunderground v.1.15,2013-03-02 20:51:00,
2013-03-03 07:56:00,66.9,64.5,30.11,SSW,202,0.0,2.0,92,0.00,,,0.08,Wunderground v.1.15,2013-03-02 20:56:00,
2013-03-03 08:01:00,67.1,64.4,30.12,South,181,0.0,2.0,91,0.00,,,0.08,Wunderground v.1.15,2013-03-02 21:01:00,
2013-03-03 08:06:00,67.3,64.6,30.12,SSE,166,1.0,2.0,91,0.00,,,0.08,Wunderground v.1.15,2013-03-02 21:06:00,
2013-03-03 08:12:00,67.5,64.8,30.12,East,98,1.0,2.0,91,0.00,,,0.08,Wunderground v.1.15,2013-03-02 21:12:00,
2013-03-03 08:17:00,67.4,64.4,30.12,SE,136,6.0,12.0,90,0.00,,,0.08,Wunderground v.1.15,2013-03-02 21:17:00,
2013-03-03 08:22:00,67.2,64.2,30.12,South,170,1.0,4.0,90,0.00,,,0.08,Wunderground v.1.15,2013-03-02 21:22:00,
2013-03-03 08:27:00,67.0,64.0,30.12,South,188,1.0,8.0,90,0.00,,,0.08,Wunderground v.1.15,2013-03-02 21:27:00,
2013-03-03 08:32:00,67.2,63.8,30.12,East,96,1.0,3.0,89,0.00,,,0.08,Wunderground v.1.15,2013-03-02 21:32:00,
2013-03-03 08:37:00,67.4,64.0,30.12,SSE,165,1.0,5.0,89,0.00,,,0.08,Wunderground v.1.15,2013-03-02 21:37:00,
2013-03-03 08:43:00,67.8,64.1,30.12,SSE,158,2.0,3.0,88,0.00,,,0.08,Wunderground v.1.15,2013-03-02 21:43:00,
2013-03-03 08:48:00,68.3,63.9,30.12,East,97,4.0,5.0,86,0.00,,,0.08,Wunderground v.1.15,2013-03-02 21:48:00,
2013-03-03 08:54:00,68.8,64.1,30.12,NE,45,1.0,3.0,85,0.00,,,0.08,Wunderground v.1.15,2013-03-02 21:54:00,
2013-03-03 08:59:00,69.3,64.3,30.12,ESE,117,2.0,4.0,84,0.00,,,0.08,Wunderground v.1.15,2013-03-02 21:59:00,
2013-03-03 09:05:00,69.7,64.6,30.13,NE,46,3.0,4.0,84,0.00,,,0.08,Wunderground v.1.15,2013-03-02 22:05:00,
2013-03-03 09:10:00,69.4,64.4,30.12,ENE,67,2.0,6.0,84,0.00,,,-99.99,WeatherLink 5.9.3,2013-03-02 22:10:00,
2013-03-03 09:15:00,70.2,64.4,30.13,ENE,68,8.0,8.0,82,0.00,,,0.08,Wunderground v.1.15,2013-03-02 22:15:00,
2013-03-03 09:20:00,70.4,64.6,30.13,SSE,161,3.0,3.0,82,0.00,,,0.08,Wunderground v.1.15,2013-03-02 22:20:00,
2013-03-03 09:25:00,70.7,64.6,30.13,East,86,1.0,7.0,81,0.00,,,0.08,Wunderground v.1.15,2013-03-02 22:25:00,
2013-03-03 09:30:00,71.0,65.2,30.13,SE,127,4.0,4.0,82,0.00,,,0.08,Wunderground v.1.15,2013-03-02 22:30:00,
2013-03-03 09:35:00,71.2,65.1,30.13,East,96,1.0,9.0,81,0.00,,,0.08,Wunderground v.1.15,2013-03-02 22:35:00,
2013-03-03 09:41:00,71.0,65.2,30.13,SE,135,3.0,10.0,82,0.00,,,-99.99,WeatherLink 5.9.3,2013-03-02 22:41:00,
2013-03-03 09:46:00,71.5,64.6,30.13,East,86,1.0,9.0,79,0.00,,,0.08,Wunderground v.1.15,2013-03-02 22:46:00,
2013-03-03 09:51:00,71.7,64.8,30.13,SE,128,4.0,4.0,79,0.00,,,0.08,Wunderground v.1.15,2013-03-02 22:51:00,
2013-03-03 09:56:00,71.8,64.6,30.14,SSE,148,4.0,8.0,78,0.00,,,0.08,Wunderground v.1.15,2013-03-02 22:56:00,
2013-03-03 10:01:00,71.7,64.1,30.14,ENE,75,3.0,7.0,77,0.00,,,0.08,Wunderground v.1.15,2013-03-02 23:01:00,
2013-03-03 10:06:00,71.8,64.2,30.14,East,84,0.0,7.0,77,0.00,,,0.08,Wunderground v.1.15,2013-03-02 23:06:00,
2013-03-03 10:11:00,72.3,64.7,30.14,ESE,114,3.0,8.0,77,0.00,,,0.08,Wunderground v.1.15,2013-03-02 23:11:00,
2013-03-03 10:16:00,72.5,63.4,30.14,East,82,8.0,8.0,73,0.00,,,0.08,Wunderground v.1.15,2013-03-02 23:16:00,
2013-03-03 10:21:00,71.6,64.0,30.14,SSE,157,4.0,11.0,77,0.00,,,-99.99,WeatherLink 5.9.3,2013-03-02 23:21:00,
2013-03-03 10:26:00,73.2,63.6,30.14,ENE,65,3.0,12.0,72,0.00,,,0.08,Wunderground v.1.15,2013-03-02 23:26:00,
2013-03-03 10:31:00,72.8,64.0,30.14,ESE,103,6.0,6.0,74,0.00,,,0.08,Wunderground v.1.15,2013-03-02 23:31:00,
2013-03-03 10:36:00,72.4,63.6,30.14,South,178,3.0,7.0,74,0.00,,,0.08,Wunderground v.1.15,2013-03-02 23:36:00,
2013-03-03 10:41:00,72.2,63.4,30.14,NE,45,4.0,8.0,74,0.00,,,0.08,Wunderground v.1.15,2013-03-02 23:41:00,
2013-03-03 10:46:00,72.7,64.3,30.14,NE,41,2.0,8.0,75,0.00,,,0.08,Wunderground v.1.15,2013-03-02 23:46:00,
2013-03-03 10:51:00,73.1,63.5,30.14,ENE,58,3.0,7.0,72,0.00,,,0.08,Wunderground v.1.15,2013-03-02 23:51:00,
2013-03-03 10:56:00,73.2,64.0,30.14,ESE,121,7.0,8.0,73,0.00,,,0.08,Wunderground v.1.15,2013-03-02 23:56:00,
2013-03-03 11:01:00,73.7,64.5,30.14,SSE,147,1.0,4.0,73,0.00,,,0.08,Wunderground v.1.15,2013-03-03 00:01:00,
2013-03-03 11:06:00,74.3,63.9,30.14,East,98,3.0,9.0,70,0.00,,,0.08,Wunderground v.1.15,2013-03-03 00:06:00,
2013-03-03 11:11:00,74.2,64.2,30.14,East,91,0.0,4.0,71,0.00,,,0.08,Wunderground v.1.15,2013-03-03 00:11:00,
2013-03-03 11:16:00,74.4,63.6,30.14,SE,125,3.0,8.0,69,0.00,,,0.08,Wunderground v.1.15,2013-03-03 00:16:00,
2013-03-03 11:21:00,74.4,64.0,30.14,South,173,3.0,5.0,70,0.00,,,0.08,Wunderground v.1.15,2013-03-03 00:21:00,
2013-03-03 11:26:00,74.6,63.8,30.14,ENE,62,5.0,8.0,69,0.00,,,0.08,Wunderground v.1.15,2013-03-03 00:26:00,
2013-03-03 11:31:00,74.3,63.9,30.14,SE,138,4.0,9.0,70,0.00,,,0.08,Wunderground v.1.15,2013-03-03 00:31:00,
2013-03-03 11:36:00,73.6,63.6,30.14,NE,35,4.0,9.0,71,0.00,,,0.08,Wunderground v.1.15,2013-03-03 00:36:00,
2013-03-03 11:41:00,73.7,63.7,30.13,ESE,122,3.0,6.0,71,0.00,,,0.08,Wunderground v.1.15,2013-03-03 00:41:00,
2013-03-03 11:46:00,74.8,63.5,30.13,ENE,72,5.0,7.0,68,0.00,,,0.08,Wunderground v.1.15,2013-03-03 00:46:00,
2013-03-03 11:51:00,74.7,63.4,30.13,ESE,121,4.0,9.0,68,0.00,,,0.08,Wunderground v.1.15,2013-03-03 00:51:00,
2013-03-03 11:56:00,74.2,63.4,30.13,ESE,121,5.0,12.0,69,0.00,,,0.08,Wunderground v.1.15,2013-03-03 00:56:00,
2013-03-03 12:01:00,74.6,63.3,30.13,ESE,103,3.0,7.0,68,0.00,,,0.08,Wunderground v.1.15,2013-03-03 01:01:00,
2013-03-03 12:06:00,75.3,63.6,30.13,NE,45,6.0,11.0,67,0.00,,,0.08,Wunderground v.1.15,2013-03-03 01:06:00,
2013-03-03 12:11:00,76.0,63.8,30.12,SSE,147,3.0,4.0,66,0.00,,,0.08,Wunderground v.1.15,2013-03-03 01:11:00,
2013-03-03 12:16:00,75.5,62.9,30.12,SSE,150,2.0,7.0,65,0.00,,,0.08,Wunderground v.1.15,2013-03-03 01:16:00,
2013-03-03 12:21:00,75.1,63.0,30.12,NNE,14,4.0,11.0,66,0.00,,,0.08,Wunderground v.1.15,2013-03-03 01:21:00,
2013-03-03 12:26:00,75.4,63.7,30.12,ENE,59,3.0,11.0,67,0.00,,,0.08,Wunderground v.1.15,2013-03-03 01:26:00,
2013-03-03 12:31:00,75.5,63.3,30.12,ESE,116,3.0,7.0,66,0.00,,,0.08,Wunderground v.1.15,2013-03-03 01:31:00,
2013-03-03 12:36:00,75.0,62.9,30.12,NE,48,3.0,12.0,66,0.00,,,0.08,Wunderground v.1.15,2013-03-03 01:36:00,
2013-03-03 12:42:00,74.6,63.3,30.12,SSE,168,2.0,9.0,68,0.00,,,0.08,Wunderground v.1.15,2013-03-03 01:42:00,
2013-03-03 12:47:00,75.2,64.3,30.11,SSE,160,2.0,9.0,69,0.00,,,0.08,Wunderground v.1.15,2013-03-03 01:47:00,
2013-03-03 12:52:00,75.3,63.6,30.11,SE,136,2.0,7.0,67,0.00,,,0.08,Wunderground v.1.15,2013-03-03 01:52:00,
2013-03-03 12:57:00,75.3,64.4,30.11,NNE,30,3.0,8.0,69,0.00,,,0.08,Wunderground v.1.15,2013-03-03 01:57:00,
2013-03-03 13:02:00,76.0,64.2,30.11,ENE,70,4.0,7.0,67,0.00,,,0.08,Wunderground v.1.15,2013-03-03 02:02:00,
2013-03-03 13:07:00,76.0,64.2,30.11,ESE,108,3.0,8.0,67,0.00,,,0.08,Wunderground v.1.15,2013-03-03 02:07:00,
2013-03-03 13:12:00,75.8,64.1,30.11,SSE,155,3.0,8.0,67,0.00,,,0.08,Wunderground v.1.15,2013-03-03 02:12:00,
2013-03-03 13:17:00,75.1,63.4,30.11,ESE,102,4.0,10.0,67,0.00,,,0.08,Wunderground v.1.15,2013-03-03 02:17:00,
2013-03-03 13:22:00,74.6,64.2,30.11,ESE,122,4.0,5.0,70,0.00,,,0.08,Wunderground v.1.15,2013-03-03 02:22:00,
2013-03-03 13:27:00,74.4,64.0,30.11,ESE,122,2.0,8.0,70,0.00,,,0.08,Wunderground v.1.15,2013-03-03 02:27:00,
2013-03-03 13:32:00,74.5,63.7,30.11,SSE,158,3.0,7.0,69,0.00,,,0.08,Wunderground v.1.15,2013-03-03 02:32:00,
2013-03-03 13:37:00,74.0,63.6,30.11,ENE,68,7.0,11.0,70,0.00,,,0.08,Wunderground v.1.15,2013-03-03 02:37:00,
2013-03-03 13:42:00,73.8,63.8,30.10,ENE,77,4.0,8.0,71,0.00,,,0.08,Wunderground v.1.15,2013-03-03 02:42:00,
2013-03-03 13:47:00,74.1,64.5,30.10,SSE,168,3.0,8.0,72,0.00,,,0.08,Wunderground v.1.15,2013-03-03 02:47:00,
2013-03-03 13:52:00,74.9,64.0,30.10,SE,138,3.0,12.0,69,0.00,,,0.08,Wunderground v.1.15,2013-03-03 02:52:00,
2013-03-03 13:57:00,75.5,64.2,30.10,SSW,202,6.0,12.0,68,0.00,,,0.08,Wunderground v.1.15,2013-03-03 02:57:00,
2013-03-03 14:02:00,76.1,64.8,30.10,SSE,155,6.0,7.0,68,0.00,,,0.08,Wunderground v.1.15,2013-03-03 03:02:00,
2013-03-03 14:07:00,75.6,63.4,30.10,ESE,115,5.0,8.0,66,0.00,,,0.08,Wunderground v.1.15,2013-03-03 03:07:00,
2013-03-03 14:12:00,75.6,63.9,30.10,South,175,7.0,10.0,67,0.00,,,0.08,Wunderground v.1.15,2013-03-03 03:12:00,
2013-03-03 14:17:00,75.8,63.6,30.10,SSW,195,6.0,10.0,66,0.00,,,0.08,Wunderground v.1.15,2013-03-03 03:17:00,
2013-03-03 14:22:00,75.0,64.1,30.10,ESE,107,3.0,9.0,69,0.00,,,0.08,Wunderground v.1.15,2013-03-03 03:22:00,
2013-03-03 14:27:00,74.6,63.8,30.10,SE,127,2.0,11.0,69,0.00,,,0.08,Wunderground v.1.15,2013-03-03 03:27:00,
2013-03-03 14:32:00,74.8,63.1,30.10,SSE,153,7.0,10.0,67,0.00,,,0.08,Wunderground v.1.15,2013-03-03 03:32:00,
2013-03-03 14:37:00,74.6,62.5,30.10,East,96,4.0,10.0,66,0.00,,,0.08,Wunderground v.1.15,2013-03-03 03:37:00,
2013-03-03 14:42:00,74.4,63.6,30.09,ESE,113,2.0,9.0,69,0.00,,,0.08,Wunderground v.1.15,2013-03-03 03:42:00,
2013-03-03 14:47:00,74.5,63.7,30.09,NE,46,5.0,9.0,69,0.00,,,0.08,Wunderground v.1.15,2013-03-03 03:47:00,
2013-03-03 14:52:00,75.3,64.4,30.09,SE,139,2.0,8.0,69,0.00,,,0.08,Wunderground v.1.15,2013-03-03 03:52:00,
2013-03-03 14:57:00,75.3,63.2,30.09,South,174,2.0,8.0,66,0.00,,,0.08,Wunderground v.1.15,2013-03-03 03:57:00,
2013-03-03 15:02:00,74.9,62.8,30.09,South,188,5.0,7.0,66,0.00,,,0.08,Wunderground v.1.15,2013-03-03 04:02:00,
2013-03-03 15:07:00,74.4,63.1,30.09,SSE,163,2.0,10.0,68,0.00,,,0.08,Wunderground v.1.15,2013-03-03 04:07:00,
2013-03-03 15:12:00,74.1,63.3,30.09,SSE,158,3.0,10.0,69,0.00,,,0.08,Wunderground v.1.15,2013-03-03 04:12:00,
2013-03-03 15:17:00,74.3,63.1,30.09,ENE,69,2.0,10.0,68,0.00,,,0.08,Wunderground v.1.15,2013-03-03 04:17:00,
2013-03-03 15:22:00,74.3,63.5,30.09,ENE,69,3.0,8.0,69,0.00,,,0.08,Wunderground v.1.15,2013-03-03 04:22:00,
2013-03-03 15:28:00,73.7,63.7,30.09,ESE,109,3.0,8.0,71,0.00,,,0.08,Wunderground v.1.15,2013-03-03 04:28:00,
2013-03-03 15:33:00,73.4,63.4,30.08,SE,132,5.0,7.0,71,0.00,,,0.08,Wunderground v.1.15,2013-03-03 04:33:00,
2013-03-03 15:38:00,73.7,64.1,30.08,ESE,105,3.0,7.0,72,0.00,,,0.08,Wunderground v.1.15,2013-03-03 04:38:00,
2013-03-03 15:43:00,73.9,63.5,30.08,South,179,5.0,8.0,70,0.00,,,0.08,Wunderground v.1.15,2013-03-03 04:43:00,
2013-03-03 15:47:00,73.8,63.8,30.08,SSW,213,3.0,9.0,71,0.00,,,0.08,Wunderground v.1.15,2013-03-03 04:47:00,
2013-03-03 15:52:00,73.9,63.9,30.08,East,79,5.0,8.0,71,0.00,,,0.08,Wunderground v.1.15,2013-03-03 04:52:00,
2013-03-03 15:57:00,73.6,64.0,30.08,NE,51,6.0,11.0,72,0.00,,,0.08,Wunderground v.1.15,2013-03-03 04:57:00,
2013-03-03 16:00:00,73.4,63.8,30.08,North,1,4.0,4.0,72,0.00,,,0.08,Wunderground v.1.15,2013-03-03 05:00:00,
2013-03-03 16:01:00,73.2,64.0,30.08,NE,51,2.0,6.0,73,0.00,,,0.08,Wunderground v.1.15,2013-03-03 05:01:00,
2013-03-03 16:06:00,73.0,63.8,30.08,East,87,4.0,8.0,73,0.00,,,0.08,Wunderground v.1.15,2013-03-03 05:06:00,
2013-03-03 16:11:00,72.9,63.3,30.08,NE,44,2.0,5.0,72,0.00,,,0.08,Wunderground v.1.15,2013-03-03 05:11:00,
2013-03-03 16:16:00,73.1,63.9,30.08,East,87,3.0,5.0,73,0.00,,,0.08,Wunderground v.1.15,2013-03-03 05:16:00,
2013-03-03 16:21:00,73.1,63.9,30.08,ESE,119,0.0,2.0,73,0.00,,,0.08,Wunderground v.1.15,2013-03-03 05:21:00,
2013-03-03 16:26:00,73.0,63.8,30.08,NE,48,2.0,7.0,73,0.00,,,0.08,Wunderground v.1.15,2013-03-03 05:26:00,
2013-03-03 16:31:00,72.9,63.7,30.08,ENE,75,1.0,12.0,73,0.00,,,0.08,Wunderground v.1.15,2013-03-03 05:31:00,
2013-03-03 16:36:00,73.0,64.2,30.08,SW,214,2.0,12.0,74,0.00,,,0.08,Wunderground v.1.15,2013-03-03 05:36:00,
2013-03-03 16:41:00,73.2,64.0,30.08,ENE,66,3.0,5.0,73,0.00,,,0.08,Wunderground v.1.15,2013-03-03 05:41:00,
2013-03-03 16:46:00,73.2,64.4,30.08,NE,52,3.0,6.0,74,0.00,,,0.08,Wunderground v.1.15,2013-03-03 05:46:00,
2013-03-03 16:51:00,73.0,64.2,30.08,SE,143,3.0,7.0,74,0.00,,,0.08,Wunderground v.1.15,2013-03-03 05:51:00,
2013-03-03 16:56:00,72.4,64.4,30.08,East,82,2.0,11.0,76,0.00,,,0.08,Wunderground v.1.15,2013-03-03 05:56:00,
2013-03-03 17:01:00,71.8,64.9,30.08,SE,124,1.0,8.0,79,0.00,,,0.08,Wunderground v.1.15,2013-03-03 06:01:00,
2013-03-03 17:06:00,71.4,64.5,30.08,WNW,284,1.0,8.0,79,0.00,,,0.08,Wunderground v.1.15,2013-03-03 06:06:00,
2013-03-03 17:11:00,71.4,64.5,30.08,East,80,3.0,5.0,79,0.00,,,0.08,Wunderground v.1.15,2013-03-03 06:11:00,
2013-03-03 17:17:00,71.4,64.5,30.08,ENE,72,2.0,5.0,79,0.00,,,0.08,Wunderground v.1.15,2013-03-03 06:17:00,
2013-03-03 17:22:00,71.5,64.6,30.08,East,96,3.0,3.0,79,0.00,,,0.08,Wunderground v.1.15,2013-03-03 06:22:00,
2013-03-03 17:27:00,71.7,64.8,30.08,NE,55,2.0,4.0,79,0.00,,,0.08,Wunderground v.1.15,2013-03-03 06:27:00,
2013-03-03 17:32:00,71.9,65.0,30.08,ENE,65,2.0,7.0,79,0.00,,,0.08,Wunderground v.1.15,2013-03-03 06:32:00,
2013-03-03 17:37:00,72.2,65.3,30.08,East,90,3.0,7.0,79,0.00,,,0.08,Wunderground v.1.15,2013-03-03 06:37:00,
2013-03-03 17:42:00,72.6,65.3,30.08,ESE,113,2.0,4.0,78,0.00,,,0.08,Wunderground v.1.15,2013-03-03 06:42:00,
2013-03-03 17:47:00,72.9,64.9,30.08,NNE,15,0.0,7.0,76,0.00,,,0.08,Wunderground v.1.15,2013-03-03 06:47:00,
2013-03-03 17:52:00,73.0,64.6,30.08,South,176,3.0,8.0,75,0.00,,,0.08,Wunderground v.1.15,2013-03-03 06:52:00,
2013-03-03 17:57:00,72.7,64.7,30.08,SSE,160,2.0,8.0,76,0.00,,,0.08,Wunderground v.1.15,2013-03-03 06:57:00,
2013-03-03 18:02:00,72.5,64.9,30.08,NE,45,4.0,7.0,77,0.00,,,0.08,Wunderground v.1.15,2013-03-03 07:02:00,
2013-03-03 18:07:00,72.0,65.1,30.08,SSE,155,3.0,11.0,79,0.00,,,0.08,Wunderground v.1.15,2013-03-03 07:07:00,
2013-03-03 18:12:00,71.7,64.5,30.09,NE,41,7.0,7.0,78,0.00,,,0.08,Wunderground v.1.15,2013-03-03 07:12:00,
2013-03-03 18:17:00,71.4,64.5,30.08,SE,131,2.0,7.0,79,0.00,,,0.08,Wunderground v.1.15,2013-03-03 07:17:00,
2013-03-03 18:22:00,71.2,64.4,30.09,ESE,122,4.0,4.0,79,0.00,,,0.08,Wunderground v.1.15,2013-03-03 07:22:00,
2013-03-03 18:27:00,70.9,64.4,30.09,East,93,1.0,8.0,80,0.00,,,0.08,Wunderground v.1.15,2013-03-03 07:27:00,
2013-03-03 18:32:00,70.7,64.2,30.09,ESE,104,3.0,6.0,80,0.00,,,0.08,Wunderground v.1.15,2013-03-03 07:32:00,
2013-03-03 18:37:00,70.5,64.4,30.09,ENE,75,3.0,6.0,81,0.00,,,0.08,Wunderground v.1.15,2013-03-03 07:37:00,
2013-03-03 18:42:00,70.3,64.2,30.09,SSW,197,5.0,5.0,81,0.00,,,0.08,Wunderground v.1.15,2013-03-03 07:42:00,
2013-03-03 18:47:00,70.2,64.1,30.09,SSW,200,3.0,5.0,81,0.00,,,0.08,Wunderground v.1.15,2013-03-03 07:47:00,
2013-03-03 18:52:00,70.1,64.0,30.09,SE,142,2.0,4.0,81,0.00,,,0.08,Wunderground v.1.15,2013-03-03 07:52:00,
2013-03-03 18:57:00,70.0,63.9,30.09,ENE,68,1.0,6.0,81,0.00,,,0.08,Wunderground v.1.15,2013-03-03 07:57:00,
2013-03-03 19:02:00,69.9,63.8,30.09,East,98,2.0,4.0,81,0.00,,,0.08,Wunderground v.1.15,2013-03-03 08:02:00,
2013-03-03 19:07:00,69.9,63.8,30.09,NE,38,0.0,6.0,81,0.00,,,0.08,Wunderground v.1.15,2013-03-03 08:07:00,
2013-03-03 19:12:00,69.9,63.8,30.09,ENE,66,2.0,3.0,81,0.00,,,0.08,Wunderground v.1.15,2013-03-03 08:12:00,
2013-03-03 19:17:00,69.8,63.7,30.09,ESE,108,0.0,5.0,81,0.00,,,0.08,Wunderground v.1.15,2013-03-03 08:17:00,
2013-03-03 19:22:00,69.7,63.6,30.09,NNE,32,1.0,3.0,81,0.00,,,0.08,Wunderground v.1.15,2013-03-03 08:22:00,
2013-03-03 19:27:00,69.7,63.6,30.10,ENE,77,0.0,6.0,81,0.00,,,0.08,Wunderground v.1.15,2013-03-03 08:27:00,
2013-03-03 19:32:00,69.6,63.5,30.10,ESE,103,4.0,4.0,81,0.00,,,0.08,Wunderground v.1.15,2013-03-03 08:32:00,
2013-03-03 19:37:00,69.6,63.5,30.10,SSE,160,3.0,5.0,81,0.00,,,0.08,Wunderground v.1.15,2013-03-03 08:37:00,
2013-03-03 19:42:00,69.5,63.4,30.10,WSW,258,3.0,3.0,81,0.00,,,0.08,Wunderground v.1.15,2013-03-03 08:42:00,
2013-03-03 19:47:00,69.5,63.4,30.10,SSE,167,3.0,5.0,81,0.00,,,0.08,Wunderground v.1.15,2013-03-03 08:47:00,
2013-03-03 19:52:00,69.4,63.3,30.10,SE,136,2.0,4.0,81,0.00,,,0.08,Wunderground v.1.15,2013-03-03 08:52:00,
2013-03-03 19:57:00,69.3,63.2,30.10,SE,131,0.0,5.0,81,0.00,,,0.08,Wunderground v.1.15,2013-03-03 08:57:00,
2013-03-03 20:02:00,69.2,63.5,30.10,South,179,1.0,2.0,82,0.00,,,0.08,Wunderground v.1.15,2013-03-03 09:02:00,
2013-03-03 20:07:00,69.0,63.3,30.11,ESE,115,1.0,4.0,82,0.00,,,0.08,Wunderground v.1.15,2013-03-03 09:07:00,
2013-03-03 20:12:00,68.9,63.2,30.11,South,169,1.0,2.0,82,0.00,,,0.08,Wunderground v.1.15,2013-03-03 09:12:00,
2013-03-03 20:17:00,68.9,63.5,30.11,SE,136,0.0,6.0,83,0.00,,,0.08,Wunderground v.1.15,2013-03-03 09:17:00,
2013-03-03 20:22:00,68.9,63.5,30.11,SSW,212,3.0,4.0,83,0.00,,,0.08,Wunderground v.1.15,2013-03-03 09:22:00,
2013-03-03 20:27:00,68.8,63.4,30.11,SSE,159,1.0,4.0,83,0.00,,,0.08,Wunderground v.1.15,2013-03-03 09:27:00,
2013-03-03 20:32:00,68.8,63.4,30.11,SE,129,2.0,4.0,83,0.00,,,0.08,Wunderground v.1.15,2013-03-03 09:32:00,
2013-03-03 20:37:00,68.9,63.2,30.11,NE,56,0.0,4.0,82,0.00,,,0.08,Wunderground v.1.15,2013-03-03 09:37:00,
2013-03-03 20:42:00,68.9,63.2,30.11,SSE,147,1.0,2.0,82,0.00,,,0.08,Wunderground v.1.15,2013-03-03 09:42:00,
2013-03-03 20:47:00,68.9,63.2,30.11,ESE,114,1.0,2.0,82,0.00,,,0.08,Wunderground v.1.15,2013-03-03 09:47:00,
2013-03-03 20:52:00,68.8,63.1,30.11,East,93,1.0,1.0,82,0.00,,,0.08,Wunderground v.1.15,2013-03-03 09:52:00,
2013-03-03 20:57:00,68.8,63.1,30.11,South,175,0.0,2.0,82,0.00,,,0.08,Wunderground v.1.15,2013-03-03 09:57:00,
2013-03-03 21:02:00,68.7,63.0,30.11,South,174,1.0,2.0,82,0.00,,,0.08,Wunderground v.1.15,2013-03-03 10:02:00,
2013-03-03 21:07:00,68.6,62.9,30.11,SSE,152,1.0,4.0,82,0.00,,,0.08,Wunderground v.1.15,2013-03-03 10:07:00,
2013-03-03 21:12:00,68.6,63.2,30.11,SSE,148,0.0,3.0,83,0.00,,,0.08,Wunderground v.1.15,2013-03-03 10:12:00,
2013-03-03 21:17:00,68.5,63.1,30.11,South,174,2.0,3.0,83,0.00,,,0.08,Wunderground v.1.15,2013-03-03 10:17:00,
2013-03-03 21:22:00,68.5,62.8,30.12,North,349,1.0,3.0,82,0.00,,,0.08,Wunderground v.1.15,2013-03-03 10:22:00,
2013-03-03 21:27:00,68.4,63.0,30.12,SSW,200,0.0,3.0,83,0.00,,,0.08,Wunderground v.1.15,2013-03-03 10:27:00,
2013-03-03 21:32:00,68.3,62.9,30.11,SSE,164,1.0,2.0,83,0.00,,,0.08,Wunderground v.1.15,2013-03-03 10:32:00,
2013-03-03 21:37:00,68.3,62.9,30.12,ENE,61,0.0,3.0,83,0.00,,,0.08,Wunderground v.1.15,2013-03-03 10:37:00,
2013-03-03 21:42:00,68.3,62.9,30.12,SE,140,1.0,2.0,83,0.00,,,0.08,Wunderground v.1.15,2013-03-03 10:42:00,
2013-03-03 21:47:00,68.3,62.9,30.12,SE,133,0.0,3.0,83,0.00,,,0.08,Wunderground v.1.15,2013-03-03 10:47:00,
2013-03-03 21:52:00,68.3,62.9,30.12,ENE,75,0.0,2.0,83,0.00,,,0.08,Wunderground v.1.15,2013-03-03 10:52:00,
2013-03-03 21:57:00,68.3,62.9,30.12,SSE,151,1.0,3.0,83,0.00,,,0.08,Wunderground v.1.15,2013-03-03 10:57:00,
2013-03-03 22:02:00,68.3,62.9,30.12,SSE,161,1.0,2.0,83,0.00,,,0.08,Wunderground v.1.15,2013-03-03 11:02:00,
2013-03-03 22:07:00,68.4,63.0,30.12,NE,42,0.0,5.0,83,0.00,,,0.08,Wunderground v.1.15,2013-03-03 11:07:00,
2013-03-03 22:12:00,68.5,63.1,30.12,ENE,72,0.0,1.0,83,0.00,,,0.08,Wunderground v.1.15,2013-03-03 11:12:00,
2013-03-03 22:18:00,68.5,63.1,30.12,SSE,168,0.0,1.0,83,0.00,,,0.08,Wunderground v.1.15,2013-03-03 11:18:00,
2013-03-03 22:23:00,68.6,63.2,30.12,East,87,0.0,2.0,83,0.00,,,0.08,Wunderground v.1.15,2013-03-03 11:23:00,
2013-03-03 22:28:00,68.6,63.2,30.12,SSE,158,0.0,2.0,83,0.00,,,0.08,Wunderground v.1.15,2013-03-03 11:28:00,
2013-03-03 22:33:00,68.6,63.2,30.13,ENE,68,0.0,2.0,83,0.00,,,0.08,Wunderground v.1.15,2013-03-03 11:33:00,
2013-03-03 22:38:00,68.6,63.2,30.12,South,176,0.0,2.0,83,0.00,,,0.08,Wunderground v.1.15,2013-03-03 11:38:00,
2013-03-03 22:43:00,68.7,63.3,30.12,SW,225,0.0,1.0,83,0.00,,,0.08,Wunderground v.1.15,2013-03-03 11:43:00,
2013-03-03 22:48:00,68.7,63.3,30.12,East,84,0.0,3.0,83,0.00,,,0.08,Wunderground v.1.15,2013-03-03 11:48:00,
2013-03-03 22:53:00,68.8,63.4,30.12,SE,136,0.0,3.0,83,0.00,,,0.08,Wunderground v.1.15,2013-03-03 11:53:00,
2013-03-03 22:58:00,68.8,63.4,30.12,South,181,0.0,4.0,83,0.00,,,0.08,Wunderground v.1.15,2013-03-03 11:58:00,
2013-03-03 23:03:00,68.8,63.4,30.12,NE,39,0.0,2.0,83,0.00,,,0.08,Wunderground v.1.15,2013-03-03 12:03:00,
2013-03-03 23:08:00,68.9,63.5,30.12,SSW,195,0.0,2.0,83,0.00,,,0.08,Wunderground v.1.15,2013-03-03 12:08:00,
2013-03-03 23:13:00,68.9,63.5,30.12,SW,231,3.0,4.0,83,0.00,,,0.08,Wunderground v.1.15,2013-03-03 12:13:00,
2013-03-03 23:18:00,68.9,63.5,30.12,ESE,103,0.0,4.0,83,0.00,,,0.08,Wunderground v.1.15,2013-03-03 12:18:00,
2013-03-03 23:23:00,68.9,63.2,30.12,ENE,76,1.0,5.0,82,0.00,,,0.08,Wunderground v.1.15,2013-03-03 12:23:00,
2013-03-03 23:28:00,68.9,63.2,30.12,East,100,0.0,5.0,82,0.00,,,0.08,Wunderground v.1.15,2013-03-03 12:28:00,
2013-03-03 23:33:00,68.9,63.5,30.12,ENE,76,0.0,4.0,83,0.00,,,0.08,Wunderground v.1.15,2013-03-03 12:33:00,
2013-03-03 23:38:00,68.8,63.4,30.12,ESE,117,0.0,4.0,83,0.00,,,0.08,Wunderground v.1.15,2013-03-03 12:38:00,
2013-03-03 23:43:00,68.8,63.8,30.12,SE,135,0.0,5.0,84,0.00,,,0.08,Wunderground v.1.15,2013-03-03 12:43:00,
2013-03-03 23:48:00,68.6,63.6,30.12,South,172,0.0,5.0,84,0.00,,,0.08,Wunderground v.1.15,2013-03-03 12:48:00,
2013-03-03 23:53:00,68.5,63.5,30.12,East,98,2.0,3.0,84,0.00,,,0.08,Wunderground v.1.15,2013-03-03 12:53:00,
2013-03-03 23:58:00,68.4,63.7,30.12,ENE,65,0.0,5.0,85,0.00,,,0.08,Wunderground v.1.15,2013-03-03 12:58:00,